Regional Weather Roundup
Issued by NWS

Home | Current Version | Previous Version | Text Only | Print | Product List | Glossary Off
Versions: 1 2 3 4 5 6 7 8 9 10 11 12 13 14 15 16 17 18 19 20 21 22 23 24 25 26 27 28 29 30 31 32 33 34 35 36 37 38 39 40 41 42 43 44 45 46 47 48 49 50

000
ASUS43 KLOT 252209
RWRIL

ILLINOIS REGIONAL WEATHER ROUNDUP
NATIONAL WEATHER SERVICE CHICAGO/ROMEOVILLE IL
500 PM CDT TUE JUL 25 2017

NOTE: "FAIR" INDICATES FEW OR NO CLOUDS BELOW 12,000 FEET WITH NO
SIGNIFICANT WEATHER AND/OR OBSTRUCTIONS TO VISIBILITY.

* THESE STATIONS ARE NOT UNDER NWS QUALITY CONTROL. THEY ALSO MAY NOT
  REPORT WEATHER SUCH AS PRECIPITATION OR FOG.

ILZ001-002-007-009-015-016-024-252300-
NORTHWEST ILLINOIS

CITY           SKY/WX    TMP DP  RH WIND       PRES   REMARKS
MOLINE         MOSUNNY   82  67  60 S10       30.10F HX  84
STERLING*      MOSUNNY   78  66  66 VRB5      30.14S HX  80
SAVANNA*       CLOUDY    80  65  59 SE13      30.11F HX  82
$$

ILZ003-004-008-010-011-017-018-252300-
NORTH CENTRAL ILLINOIS

CITY           SKY/WX    TMP DP  RH WIND       PRES   REMARKS
ROCKFORD       CLOUDY    79  61  53 S14       30.14F HX  80
FREEPORT*      CLOUDY    76  64  66 SE9       30.14F
ROCHELLE*      PTSUNNY   76  61  60 S8        30.14F
DE KALB*       MOSUNNY   76  61  59 S10       30.15F
PERU*          MOSUNNY  N/A N/A N/A E7        30.13F
$$

ILZ005-006-012>014-019>023-252300-
NORTHEAST ILLINOIS

CITY           SKY/WX    TMP DP  RH WIND       PRES   REMARKS
CHICAGO-OHARE  CLOUDY    80  57  45 SE14      30.13F HX  80
CHICAGO-MIDWAY PTSUNNY   81  58  45 E15       30.14F HX  81
AURORA         SUNNY     79  61  53 SE12      30.14F HX  80
LANSING*       SUNNY     79  53  40 S9        30.16F
JOLIET*        SUNNY     80  62  53 SE9       30.14F HX  81
WAUKEGAN       PTSUNNY   73  62  68 SE12      30.12F
DUPAGE AIRPORT MOSUNNY   79  62  56 S13       30.13F HX  80
WHEELING       CLOUDY    77  60  55 SE10      30.15F
MORRIS*        SUNNY     78  61  55 SE7       30.13F HX  80
ROMEOVILLE*    SUNNY     79  57  47 S8        30.14F HX  80
NORTHERLY ISL    N/A     74  60  61 E10         N/A
$$

LMZ740>746-252300-
SOUTHERN LAKE MICHIGAN

STATION/POSITION SKY/WX   TEMP    WIND        PRES    VSBY  WAVE
                          AIR SEA DIR/SP/G                  HT/PER
                          (F)     (DEG/KT/KT) (MB)    (MI)  (FT/S)
SOUTHERN BUOY              71 71  130/ 10/ 12 1021.4F         1/ 4
WILMETTE HARBOR            72 72  110/ 14/ 17   N/A           2/ 3
HARRISON CRIB              74     100/ 16/ 17   N/A
BURNHAM HARBOR             74                   N/A
CALUMET HARBOR             75      40/  8/ 11 1021.2F
BURNS HARBOR               79     110/  9/ 14 1022.0F
MICHIGAN CITY              77     120/ 10/ 11   N/A
MICHIGAN CITY 6N           77 76   70/  2/  2   N/A           1
ST. JOSEPH                 73 76   40/  8/ 10 1021.8          1
$$

ILZ025>027-034>036-040-047-049-050-058-095>099-252300-
WEST-CENTRAL ILLINOIS

CITY           SKY/WX    TMP DP  RH WIND       PRES   REMARKS
QUINCY         SUNNY     88  66  48 SE10      30.08F HX  90
GALESBURG*     MOSUNNY   81  67  62 SE7       30.12F HX  83
MACOMB*        MOSUNNY   83  69  64 E7        30.12F HX  86
JACKSONVILLE*  PTSUNNY   86  69  56 SE8       30.10S HX  89
PITTSFIELD*    MOSUNNY   87  72  61 SE7       30.10F HX  93
$$

ILZ028>032-037-038-041>044-048-051>054-059>061-252300-
CENTRAL ILLINOIS

CITY           SKY/WX    TMP DP  RH WIND       PRES   REMARKS
PONTIAC        SUNNY     79  64  60 SE8       30.15F HX  81
BLOOMINGTON    MOSUNNY   82  65  56 NE9       30.15F HX  84
DECATUR        MOSUNNY   83  66  56 E7        30.13F HX  85
PEORIA         MOSUNNY   82  64  54 E6        30.12F HX  83
LACON*         CLOUDY    81  67  61 SE6       30.11F HX  84
LINCOLN*       MOSUNNY   85  69  60 E7        30.12F HX  89
SPRINGFIELD    MOSUNNY   86  70  58 E9        30.11F HX  90
TAYLORVILLE    SUNNY     84  67  58 E7        30.12S HX  86
$$

ILZ033-039-045-046-055>057-062-063-252300-
EAST-CENTRAL ILLINOIS

CITY           SKY/WX    TMP DP  RH WIND       PRES   REMARKS
CHAMPAIGN      MOSUNNY   82  66  58 E5        30.15S HX  84
RANTOUL*       SUNNY     83  64  52 E7        30.15F HX  85
MATTOON        MOSUNNY   81  68  64 E5        30.13S HX  84
PARIS*         MOSUNNY   81  66  60 E5        30.15S HX  83
$$

ILZ079-100>102-252300-
SOUTHWEST ILLINOIS

CITY           SKY/WX    TMP DP  RH WIND       PRES   REMARKS
ALTON          MOSUNNY   88  73  62 E8        30.08F HX  96
BELLEVILLE     MOSUNNY   89  74  59 E7        30.07F HX  98
CAHOKIA*       MOSUNNY   92  71  50 E10       30.05F HX  98
SPARTA*        MOSUNNY   90  74  59 E6        30.07S HX 100
$$

ILZ064>066-069>071-074>076-080>082-084>086-088>090-092>094-252300-
SOUTH-CENTRAL ILLINOIS

CITY           SKY/WX    TMP DP  RH WIND       PRES   REMARKS
CARBONDALE     MOSUNNY   87  77  72 S5        30.06S HX  99
CAIRO*         PTSUNNY   82  77  83 E5        30.05F HX  90
EFFINGHAM*     CLOUDY    85  70  61 NE9       30.13S HX  89
MARION         PTSUNNY   90  77  66 E6        30.07F HX 102
MT. VERNON     SUNNY     88  73  61 E7        30.09F HX  95
CENTRALIA*     MOSUNNY   87  74  64 E5        30.08F HX  95
SALEM*         MOSUNNY   88  71  56 CALM      30.09F HX  93
METROPOLIS*    PTSUNNY   83  77  82 SE5       30.07F HX  91
$$

ILZ067-068-072-073-078-083-087-091-252300-
SOUTHEAST ILLINOIS

CITY           SKY/WX    TMP DP  RH WIND       PRES   REMARKS
LAWRENCEVILLE  PTSUNNY   84  69  60 E7        30.12F HX  88
FLORA*         MOSUNNY   87  70  56 E10       30.10F HX  92
FAIRFIELD*     PTSUNNY   85  72  65 E5        30.09S HX  90
HARRISBURG*    MOSUNNY   87  76  69 E8        30.08S HX  98
ROBINSON*      SUNNY     83  69  61 E3        30.14R HX  86
CARMI*         SUNNY     86  74  66 E9        30.07F HX  94
$$

ABBREVIATIONS USED IN REMARKS
   TC - TEMPERATURE IN CELSIUS
  WCI - WIND CHILL INDEX
   HX - HEAT INDEX
  VSB - VISIBILITY
$$





USA.gov is the U.S. government's official web portal to all federal, state and local government web resources and services.